格洛纳斯-795 COSMOS 2403 [GLONASS]

导读 | 星芒AI

COSMOS 2403 是一颗俄罗斯 GLONASS 卫星,于 2011 年 11 月 25 日由联盟号火箭发射。该卫星属于 GLONASS-K 系列,旨在提供全球导航和定位服务。它运行在中地球轨道,设计寿命为 7 年,配备现代化的导航信号系统,支持 L1、L2 和 L3 频段。COSMOS 2403 的发射增强了 GLONASS 系统的覆盖范围和精度,提升了俄罗斯在全球卫星导航领域的竞争力。

基本信息
目录编号:
28114
目录名称:
COSMOS 2403 (GLONASS)
国际标识:
2003-056C
轨道中心:
EARTH
卫星名称:
格洛纳斯-795
卫星全名:
格洛纳斯-795 COSMOS 2403 [GLONASS]
卫星状态:
在轨 (已飞行7997 天)
发射日期:
2003-12-10 UTC
国别 :
俄罗斯(独联体) (CIS)
星等 :
--
轨道信息
数据来源 国际轨道数据 AOE轨道数据
星历时间 2025-10-31T19:48:16+0800
18小时前
查看轨道信息
2025-10-30T07:00:00+0800
2天前
查看轨道信息
半长轴 25507.809km 25507.706km
偏心率 0.0058288 0.0057478
轨道倾角 64.127° 64.125°
近地点辐角 62.564° 62.206°
升交点赤经 70.293° 70.347°
平近点角 20.408° 284.277°
近地点 18980.994km 18982.957km
远地点 19278.354km 19276.185km
周期 675.724分钟 675.720分钟
每日圈数 2.131047 2.13106
详细信息
平衡模式:
三轴稳定
覆盖范围:
全球
运营商:
列舍特涅夫卫星信息系统
运营商所在国:
俄罗斯
制造商(研发单位):
列舍特涅夫卫星信息系统
制造商所在国:
俄罗斯
使用方式:
暂无
卫星简介
格洛纳斯(GLONASS )是苏联/俄罗斯研制卫星导航系统。标准配置为24颗卫星,其中18颗卫星就能保证该系统为俄罗斯境内用户提供全部服务。该卫星已退役。
2D轨道图
3D轨道图
轨道高度分析图
轨道倾角分析图
轨道综合分析图
查看轨道综合分析图